CW4226 Weather Reports


Display with metric or nautical units.
time (UTC)temp
F
wind
direction
speed
MPH
gust
MPH
rain 1hr
in
rain 24hr
in
rain mn
in
humidity
%
barometer
mb
20260502170459 51 46 2.0 5.0 0.00 0.00 0.00 41 1009.3
20260502163943 51 255 2.0 4.0 0.00 0.00 0.00 42 1009.2
20260502163439 53 216 2.0 9.0 0.00 0.00 0.00 50 1009.4
20260502163055 54 229 3.0 6.0 0.00 0.11 0.00 40 1008.5
20260502162937 54 224 4.0 4.0 0.00 0.00 0.00 41 1009.6
20260502162434 54 67 3.0 4.0 0.00 0.00 0.00 43 1009.7
20260502161931 54 246 1.0 3.0 0.00 0.00 0.00 46 1009.6
20260502161554 53 223 2.0 5.0 0.00 0.11 0.00 50 1008.9
20260502161426 54 241 3.0 3.0 0.00 0.00 0.00 43 1009.8
20260502160925 52 251 0.0 3.0 0.00 0.00 0.00 47 1009.8
20260502160423 51 239 3.0 3.0 0.00 0.00 0.00 51 1009.7
20260502151901 51 73 0.0 4.0 0.00 0.00 0.00 45 1010.1
20260502151554 50 266 1.0 5.0 0.00 0.11 0.00 44 1009.1
20260502151357 51 97 3.0 5.0 0.00 0.00 0.00 43 1009.8
20260502150855 49 74 1.0 4.0 0.00 0.00 0.00 44 1009.8
20260502150351 51 50 0.0 2.0 0.00 0.00 0.00 46 1009.8
20260502130739 45 221 0.0 3.0 0.00 0.00 0.00 68 1010.5
20260502130237 44 50 2.0 5.0 0.00 0.00 0.00 69 1010.2
20260502123723 44 63 2.0 2.0 0.00 0.00 0.00 68 1010.5
20260502123219 44 87 2.0 2.0 0.00 0.00 0.00 74 1010.2
20260502123054 43 261 1.0 2.0 0.00 0.11 0.00 78 1009.7
20260502122716 43 66 0.0 3.0 0.00 0.00 0.00 75 1010.3
20260502122212 44 75 0.0 3.0 0.00 0.00 0.00 75 1010.1
20260502121711 44 336 0.0 3.0 0.00 0.00 0.00 77 1010.1
20260502121554 43 153 1.0 3.0 0.00 0.11 0.00 81 1009.5
20260502121209 44 68 1.0 3.0 0.00 0.00 0.00 75 1010.1
20260502120704 44 60 1.0 2.0 0.00 0.00 0.00 78 1010.0
20260502120201 45 238 1.0 3.0 0.00 0.00 0.00 75 1010.2
20260502115659 46 60 1.0 2.0 0.00 0.00 0.00 76 1010.3
20260502115155 44 55 0.0 4.0 0.00 0.00 0.00 77 1010.1
20260502114651 44 61 2.0 4.0 0.00 0.00 0.00 78 1010.0
20260502114554 42 186 0.0 2.0 0.00 0.11 0.00 85 1009.4
20260502114149 44 57 2.0 2.0 0.00 0.00 0.00 81 1010.0
20260502113646 42 48 0.0 2.0 0.00 0.00 0.00 84 1010.1
20260502113144 41 64 2.0 3.0 0.00 0.00 0.00 87 1010.0
20260502113055 41 153 0.0 1.0 0.00 0.11 0.00 87 1009.4
20260502112642 40 206 0.0 3.0 0.00 0.00 0.00 87 1009.8
20260502112139 40 53 0.0 2.0 0.00 0.00 0.00 88 1010.1
20260502111636 40 74 0.0 3.0 0.00 0.00 0.00 88 1010.3
20260502111554 41 153 0.0 1.0 0.00 0.11 0.00 88 1009.8
20260502111134 40 64 2.0 2.0 0.00 0.00 0.00 88 1010.3
20260502110632 40 87 1.0 2.0 0.00 0.00 0.00 89 1010.1
20260502110129 40 57 0.0 2.0 0.00 0.00 0.00 89 1009.9
20260502105626 40 57 2.0 2.0 0.00 0.00 0.00 90 1009.9
20260502105123 40 53 2.0 2.0 0.00 0.00 0.00 90 1010.0
20260502104620 40 60 1.0 3.0 0.00 0.00 0.00 90 1010.0
20260502104553 41 118 0.0 0.0 0.00 0.11 0.00 90 1009.3
20260502104118 40 51 1.0 2.0 0.00 0.00 0.00 91 1010.1
20260502103615 40 59 2.0 3.0 0.00 0.00 0.00 91 1009.8
20260502103113 40 58 1.0 2.0 0.00 0.00 0.00 91 1009.7
20260502102609 40 55 2.0 2.0 0.00 0.00 0.00 91 1009.6
20260502102106 40 63 2.0 2.0 0.00 0.00 0.00 91 1009.8
20260502101604 40 62 2.0 2.0 0.00 0.00 0.00 91 1009.6
20260502101102 40 61 2.0 2.0 0.00 0.00 0.00 90 1009.6
20260502100600 40 66 2.0 2.0 0.00 0.00 0.00 90 1009.7
20260502091032 40 62 1.0 2.0 0.00 0.00 0.00 88 1009.1
20260502090529 40 59 2.0 2.0 0.00 0.00 0.00 88 1009.1
20260502071424 42 66 1.0 2.0 0.00 0.00 0.00 92 1008.0
20260502070922 42 57 0.0 2.0 0.00 0.00 0.00 92 1008.0
20260502070419 42 73 2.0 2.0 0.00 0.00 0.00 92 1008.2
20260502070054 43 178 1.0 2.0 0.00 0.11 0.00 92 1007.1
20260502065918 42 69 1.0 2.0 0.00 0.00 0.00 92 1008.1
20260502065416 42 63 2.0 2.0 0.00 0.00 0.00 92 1008.2
20260502064913 42 66 1.0 2.0 0.00 0.00 0.00 92 1008.4
20260502064554 43 136 0.0 1.0 0.00 0.11 0.00 91 1007.2
20260502064411 42 50 1.0 2.0 0.00 0.00 0.00 92 1008.1
20260502063908 42 69 2.0 2.0 0.00 0.00 0.00 92 1008.3
20260502063406 42 64 1.0 2.0 0.00 0.00 0.00 93 1008.5
20260502063055 43 127 0.0 1.0 0.00 0.11 0.00 92 1007.3
20260502062903 43 59 1.0 2.0 0.00 0.00 0.00 93 1008.4
20260502062400 43 49 0.0 2.0 0.00 0.00 0.00 93 1008.5
20260502061859 43 55 0.0 2.0 0.00 0.00 0.00 94 1008.3
20260502061554 44 127 0.0 3.0 0.00 0.11 0.00 93 1007.2
20260502061356 43 67 0.0 4.0 0.00 0.00 0.00 94 1008.4
20260502060852 43 60 2.0 2.0 0.00 0.00 0.00 95 1008.2
20260502060347 44 51 0.0 2.0 0.00 0.00 0.00 95 1008.4
20260502060054 44 187 0.0 1.0 0.00 0.11 0.00 95 1007.3
20260502055845 44 44 0.0 2.0 0.00 0.00 0.00 95 1008.5
20260502055343 44 65 0.0 2.0 0.00 0.00 0.00 96 1008.4
20260502054843 44 58 1.0 2.0 0.00 0.00 0.00 96 1008.5
20260502054339 44 63 1.0 2.0 0.00 0.00 0.00 96 1008.5
20260502053837 44 53 0.0 1.0 0.00 0.00 0.00 96 1008.2
20260502053334 44 44 0.0 0.0 0.00 0.00 0.00 96 1008.4
20260502053055 45 187 1.0 2.0 0.00 0.11 0.00 95 1007.1
20260502052831 44 84 0.0 2.0 0.00 0.00 0.00 95 1008.1
20260502052329 44 66 0.0 1.0 0.00 0.00 0.00 95 1008.3
20260502051827 44 65 1.0 2.0 0.00 0.00 0.00 95 1008.6
20260502051554 45 187 0.0 0.0 0.00 0.11 0.00 95 1007.1
20260502051326 44 70 1.0 2.0 0.00 0.00 0.00 95 1008.4
20260502050821 44 62 2.0 2.0 0.00 0.00 0.00 95 1008.4
20260502050318 44 65 0.0 2.0 0.00 0.00 0.00 95 1008.4
20260502050054 45 187 0.0 1.0 0.00 0.11 0.00 94 1007.3
20260502045815 44 41 0.0 0.0 0.00 0.00 0.00 95 1008.4
20260502045312 44 59 1.0 2.0 0.00 0.00 0.00 95 1008.3
20260502044809 44 69 0.0 2.0 0.02 0.00 0.00 95 1008.3
20260502044555 45 122 0.0 1.0 0.01 0.11 0.00 94 1007.3
20260502044305 44 73 1.0 2.0 0.02 0.00 0.00 95 1008.3
20260502043802 44 74 2.0 2.0 0.00 0.00 0.00 95 1008.2
20260502043300 44 66 0.0 1.0 0.00 0.00 0.00 95 1008.6
20260502043054 45 122 0.0 1.0 0.02 0.11 0.00 94 1007.3
20260502042759 44 63 2.0 2.0 0.00 0.00 0.00 95 1008.4
20260502042257 44 62 1.0 1.0 0.00 0.00 0.00 95 1008.4
20260502041754 44 49 0.0 1.0 0.00 0.00 0.00 95 1008.4
20260502041554 45 122 0.0 1.0 0.02 0.11 0.00 94 1007.3
20260502041251 44 63 1.0 2.0 0.00 0.00 0.00 95 1008.2
20260502040748 44 59 2.0 2.0 0.00 0.00 0.00 95 1008.0
20260502040245 44 48 2.0 3.0 0.00 0.00 0.00 95 1008.2
20260502040054 45 122 0.0 0.0 0.03 0.11 0.00 94 1007.3
20260502035741 44 66 1.0 2.0 0.00 0.12 0.12 95 1008.3
20260502035238 44 53 0.0 2.0 0.00 0.12 0.12 95 1008.3
20260502034736 44 36 1.0 2.0 0.02 0.12 0.12 95 1008.4
20260502034554 45 122 0.0 0.0 0.02 0.10 0.10 94 1007.2
20260502034233 44 62 2.0 2.0 0.05 0.12 0.12 95 1008.2
20260502033731 44 63 0.0 2.0 0.02 0.11 0.11 95 1008.3
20260502033229 44 58 2.0 2.0 0.00 0.11 0.11 95 1008.4
20260502033056 45 122 0.0 0.0 0.01 0.09 0.09 94 1007.3
20260502032726 45 60 0.0 1.0 0.02 0.11 0.11 95 1008.3
20260502032221 45 66 2.0 2.0 0.02 0.11 0.11 95 1008.2
20260502031720 45 59 2.0 2.0 0.02 0.11 0.11 95 1008.3
20260502031554 45 122 0.0 1.0 0.02 0.09 0.09 94 1007.3
20260502031217 45 67 2.0 2.0 0.02 0.10 0.10 95 1008.2
20260502030716 44 67 2.0 2.0 0.02 0.10 0.10 95 1008.3
20260502030214 45 72 2.0 3.0 0.02 0.10 0.10 95 1008.4
20260502030054 45 122 0.0 1.0 0.01 0.08 0.08 94 1007.4
20260502025710 45 56 2.0 2.0 0.02 0.10 0.10 95 1008.5
20260502025208 45 64 2.0 2.0 0.00 0.09 0.09 95 1008.4
20260502024706 45 51 2.0 2.0 0.00 0.09 0.09 95 1008.4
20260502024554 45 122 0.0 1.0 0.01 0.08 0.08 93 1007.4
20260502024204 45 53 0.0 2.0 0.00 0.09 0.09 95 1008.4
20260502023701 45 50 1.0 2.0 0.02 0.09 0.09 94 1008.6
20260502023158 45 55 0.0 1.0 0.05 0.09 0.09 94 1008.4
20260502023055 45 122 0.0 0.0 0.01 0.08 0.08 93 1007.5
20260502022655 45 52 2.0 2.0 0.00 0.09 0.09 94 1008.4
20260502022152 45 50 2.0 2.0 0.00 0.09 0.09 94 1008.5
20260502021649 44 60 1.0 1.0 0.00 0.09 0.09 94 1008.6
20260502021554 45 122 0.0 1.0 0.00 0.07 0.07 93 1007.7
20260502021146 45 60 1.0 2.0 0.00 0.09 0.09 94 1008.6
20260502020644 45 50 2.0 2.0 0.00 0.09 0.09 94 1008.4
20260502020141 45 63 2.0 2.0 0.00 0.09 0.09 94 1008.5
20260502015639 45 52 2.0 2.0 0.00 0.09 0.09 94 1008.7
20260502015134 45 62 1.0 2.0 0.00 0.09 0.09 94 1008.7
20260502014632 45 62 1.0 2.0 0.00 0.09 0.09 94 1008.5
20260502014554 46 122 0.0 0.0 0.01 0.07 0.07 92 1007.5
20260502014129 45 68 1.0 2.0 0.00 0.09 0.09 94 1008.7
20260502013625 45 55 1.0 2.0 0.02 0.09 0.09 94 1008.8
20260502013121 45 61 2.0 2.0 0.02 0.09 0.09 93 1008.7
20260502013055 45 122 0.0 0.0 0.03 0.07 0.07 92 1007.5
20260502012619 45 74 2.0 2.0 0.00 0.08 0.08 93 1008.3
20260502012117 45 54 2.0 2.0 0.00 0.08 0.08 93 1008.4
20260502011613 45 52 0.0 2.0 0.00 0.08 0.08 93 1008.3
20260502011554 46 122 0.0 0.0 0.03 0.07 0.07 92 1007.4
20260502011109 45 60 1.0 2.0 0.00 0.08 0.08 92 1008.4
20260502010607 45 44 0.0 2.0 0.02 0.08 0.08 92 1008.3
20260502010054 46 122 0.0 1.0 0.04 0.07 0.07 91 1007.4
20260502005600 45 56 2.0 3.0 0.02 0.08 0.08 92 1008.2
20260502005058 45 63 2.0 2.0 0.07 0.08 0.08 92 1008.4
20260502004555 46 122 0.0 1.0 0.04 0.06 0.06 90 1007.5
20260502004553 45 58 2.0 2.0 0.07 0.07 0.07 92 1008.4
20260502004050 45 79 0.0 2.0 0.05 0.06 0.06 91 1008.7
20260502003548 45 66 2.0 2.0 0.05 0.06 0.06 91 1008.5
20260502003054 46 122 0.0 1.0 0.02 0.04 0.04 90 1007.5
20260502003045 45 32 0.0 2.0 0.07 0.06 0.06 91 1008.5
20260502002541 45 64 1.0 2.0 0.05 0.05 0.05 91 1008.4
20260502002038 45 61 1.0 2.0 0.02 0.04 0.04 90 1008.1
20260502001554 46 122 0.0 0.0 0.03 0.04 0.04 89 1007.2
20260502001536 46 59 2.0 3.0 0.00 0.04 0.04 91 1008.2
20260502001033 45 47 0.0 2.0 0.00 0.04 0.04 90 1008.0
20260502000531 45 63 1.0 1.0 0.02 0.04 0.04 89 1008.2
20260502000054 46 122 0.0 1.0 0.03 0.03 0.03 87 1007.5
20260502000029 45 61 1.0 2.0 0.05 0.04 0.04 89 1008.2
20260501235524 46 52 0.0 2.0 0.05 0.04 0.04 88 1008.0
20260501235019 46 59 2.0 2.0 0.02 0.03 0.03 87 1008.2
20260501234515 46 62 1.0 2.0 0.02 0.03 0.03 87 1008.2
20260501234014 46 78 0.0 2.0 0.05 0.03 0.03 86 1008.2
20260501233512 46 50 2.0 2.0 0.02 0.02 0.02 85 1008.0
20260501233008 46 50 0.0 2.0 0.02 0.02 0.02 84 1007.9
20260501232504 47 57 0.0 2.0 0.02 0.02 0.02 83 1007.8
20260501232001 47 59 1.0 2.0 0.02 0.01 0.01 81 1007.9
20260501231554 48 122 0.0 1.0 0.01 0.01 0.01 79 1007.1
20260501231500 47 66 0.0 1.0 0.02 0.01 0.01 80 1007.8
20260501230958 48 76 0.0 1.0 0.02 0.01 0.01 78 1008.0
20260501230456 48 40 0.0 2.0 0.02 0.01 0.01 75 1007.9
20260501230053 49 122 0.0 2.0 0.00 0.00 0.00 74 1007.2
20260501225953 48 49 0.0 2.0 0.02 0.00 0.00 73 1007.7
20260501225451 49 68 1.0 3.0 0.02 0.00 0.00 72 1007.7
20260501224947 49 66 2.0 2.0 0.00 0.00 0.00 71 1007.7
20260501224555 50 103 0.0 1.0 0.00 0.00 0.00 71 1007.1
20260501224444 49 68 2.0 3.0 0.00 0.00 0.00 71 1007.7
20260501223942 50 39 2.0 3.0 0.00 0.00 0.00 70 1007.5
20260501223437 50 71 2.0 2.0 0.00 0.00 0.00 69 1007.3
20260501223055 51 83 0.0 1.0 0.00 0.00 0.00 70 1006.8
20260501222933 50 46 1.0 2.0 0.00 0.00 0.00 69 1007.5
20260501222431 50 78 3.0 3.0 0.00 0.00 0.00 66 1007.5
20260501221927 50 31 2.0 2.0 0.00 0.00 0.00 66 1007.3
20260501221553 51 150 0.0 1.0 0.00 0.00 0.00 68 1006.7
20260501221424 50 32 0.0 2.0 0.00 0.00 0.00 68 1007.6
20260501220922 50 37 2.0 2.0 0.00 0.00 0.00 68 1007.3
20260501220420 50 53 1.0 2.0 0.00 0.00 0.00 66 1007.6
20260501220053 52 150 1.0 2.0 0.00 0.00 0.00 66 1006.8
20260501215915 51 79 2.0 2.0 0.00 0.00 0.00 65 1007.3
20260501215412 51 44 2.0 2.0 0.00 0.00 0.00 63 1007.4
20260501214908 52 19 0.0 3.0 0.00 0.00 0.00 61 1007.5
20260501214554 53 74 1.0 3.0 0.00 0.00 0.00 59 1006.7
20260501214403 52 54 2.0 2.0 0.00 0.00 0.00 60 1007.4
20260501213859 52 61 0.0 1.0 0.00 0.00 0.00 55 1007.2
20260501213356 53 252 0.0 3.0 0.00 0.00 0.00 54 1007.3
20260501213054 53 96 1.0 2.0 0.00 0.00 0.00 55 1006.5
20260501212851 53 30 1.0 2.0 0.00 0.00 0.00 56 1007.3
20260501212348 53 71 1.0 4.0 0.00 0.00 0.00 52 1007.1
20260501211845 53 55 2.0 3.0 0.00 0.00 0.00 53 1007.4
20260501211343 53 7 0.0 1.0 0.00 0.00 0.00 55 1007.0
20260501210840 53 72 0.0 3.0 0.00 0.00 0.00 56 1007.1
20260501210337 53 81 3.0 3.0 0.00 0.00 0.00 54 1007.1
20260501210055 54 179 1.0 3.0 0.00 0.00 0.00 55 1006.3
20260501205833 54 337 1.0 3.0 0.00 0.00 0.00 53 1007.1
20260501205330 54 28 0.0 3.0 0.00 0.00 0.00 52 1007.0
20260501204827 54 50 0.0 1.0 0.00 0.00 0.00 49 1006.9
20260501204554 55 201 0.0 2.0 0.00 0.00 0.00 50 1006.2
20260501204323 55 43 1.0 3.0 0.00 0.00 0.00 48 1007.1
20260501203819 55 49 0.0 2.0 0.00 0.00 0.00 49 1007.1
20260501203317 55 50 2.0 3.0 0.00 0.00 0.00 50 1007.0
20260501203054 55 28 0.0 2.0 0.00 0.00 0.00 48 1006.2
20260501202814 55 40 2.0 4.0 0.00 0.00 0.00 49 1006.9
20260501202311 55 37 0.0 2.0 0.00 0.00 0.00 47 1006.9
20260501201808 54 79 2.0 2.0 0.00 0.00 0.00 50 1006.8
20260501201554 55 244 1.0 5.0 0.00 0.00 0.00 50 1006.1
20260501201304 54 48 0.0 3.0 0.00 0.00 0.00 48 1006.9
20260501200801 54 224 3.0 5.0 0.00 0.00 0.00 48 1007.2
20260501200258 55 216 5.0 5.0 0.00 0.00 0.00 46 1006.9
20260501200053 56 264 1.0 5.0 0.00 0.00 0.00 47 1006.0
20260501195756 56 51 2.0 4.0 0.00 0.00 0.00 43 1006.8
20260501195251 56 44 0.0 6.0 0.00 0.00 0.00 43 1006.8
20260501194748 57 75 2.0 3.0 0.00 0.00 0.00 40 1006.8
20260501194553 57 211 0.0 2.0 0.00 0.00 0.00 40 1005.9
20260501194243 57 37 0.0 2.0 0.00 0.00 0.00 39 1006.4
20260501193740 57 68 1.0 2.0 0.00 0.00 0.00 40 1006.6
20260501193239 57 80 2.0 2.0 0.00 0.00 0.00 37 1006.7
20260501192736 57 69 2.0 2.0 0.00 0.00 0.00 39 1006.7
20260501192232 58 60 3.0 4.0 0.00 0.00 0.00 38 1006.4
20260501191730 59 58 3.0 4.0 0.00 0.00 0.00 36 1006.3
20260501191554 59 35 0.0 2.0 0.00 0.00 0.00 38 1005.6
20260501191227 58 64 2.0 3.0 0.00 0.00 0.00 34 1006.7
20260501190723 58 55 0.0 2.0 0.00 0.00 0.00 36 1006.4
20260501190219 59 20 0.0 2.0 0.00 0.00 0.00 36 1006.4
20260501185715 59 45 2.0 5.0 0.00 0.00 0.00 35 1006.4
20260501185211 58 45 1.0 2.0 0.00 0.00 0.00 43 1006.4
20260501184707 58 73 0.0 1.0 0.00 0.00 0.00 43 1006.6
20260501184554 60 233 1.0 3.0 0.00 0.00 0.00 37 1005.6
20260501184202 60 46 1.0 2.0 0.00 0.00 0.00 33 1006.7
20260501183659 60 66 0.0 2.0 0.00 0.00 0.00 37 1006.8
20260501183156 61 262 0.0 3.0 0.00 0.00 0.00 35 1006.6
20260501182652 61 283 0.0 2.0 0.00 0.00 0.00 33 1006.7
20260501182149 61 20 2.0 3.0 0.00 0.00 0.00 37 1006.6
20260501181646 62 89 0.0 4.0 0.00 0.00 0.00 36 1006.6
20260501181553 62 111 1.0 3.0 0.00 0.00 0.00 35 1005.7
20260501181143 62 269 0.0 1.0 0.00 0.00 0.00 38 1006.6
20260501180641 61 47 2.0 3.0 0.00 0.00 0.00 34 1006.6
20260501180137 61 197 0.0 3.0 0.00 0.00 0.00 38 1006.8
20260501175634 61 48 2.0 4.0 0.00 0.00 0.00 33 1006.6
20260501175131 61 66 2.0 5.0 0.00 0.00 0.00 35 1006.8
20260501174628 62 66 2.0 4.0 0.00 0.00 0.00 38 1006.9
20260501174125 62 7 0.0 3.0 0.00 0.00 0.00 37 1006.8
20260501173623 61 249 0.0 2.0 0.00 0.00 0.00 36 1006.9
20260501173119 61 80 2.0 6.0 0.00 0.00 0.00 30 1007.2
20260501173054 62 108 3.0 5.0 0.00 0.00 0.00 31 1006.1
20260501172615 62 6 0.0 3.0 0.00 0.00 0.00 32 1007.0